Weather History for Millville, NJ

Change the Weather History Date:

Sunday, October 7, 2012

  Actual Average Record
Temperature  
Mean Temperature 48 °F -  
Max Temperature 53 °F 68 °F 89 °F (2007)
Min Temperature 44 °F 46 °F 32 °F (1954)
Degree Days  
Heating Degree Days 17    
Moisture  
Dew Point 45 °F    
Average Humidity 87    
Maximum Humidity 100    
Minimum Humidity 69    
Precipitation  
Precipitation 0.15 in - - ()
Sea Level Pressure  
Sea Level Pressure 30.10 in    
Wind  
Wind Speed 3 mph (NNW)    
Max Wind Speed 10 mph    
Max Gust Speed -    
Visibility 7 miles    
Events Rain    
Averages and records for this station are not official NWS values.
T = Trace of Precipitation, MM = Missing Value Source: NWS Daily Summary

Daily Weather History Graph

Daily Weather History Graph

Search for Another Location

Airport:

Trip Planner

Search our weather history database for the weather conditions in past years. The results will help you decide how hot, cold, wet, or windy it might be!

Date:

Astronomy

Oct. 07, 2012 Rise Set
Actual Time 7:02 AM EDT 6:32 PM EDT
Civil Twilight 6:35 AM EDT 6:59 PM EDT
Nautical Twilight 6:04 AM EDT 7:30 PM EDT
Astronomical Twilight 5:33 AM EDT 8:01 PM EDT
Moon 11:43 PM EDT (10/7) 1:36 PM EDT (10/7)
Length of Visible Light 12h 23m
Length of Day
11h 30m
Waning Gibbous, 56% of the Moon is Illuminated
Oct 7
Waning Gibbous
Oct 8
Last Quarter
Oct 15
New
Oct 21
First Quarter
Oct 29
Full

Hourly Weather History & Observations

Time (EDT) Temp. Windchill Dew Point Humidity Pressure Visibility Wind Dir Wind Speed Gust Speed Precip Events Conditions
12:54 AM 48.9 °F - 45.0 °F 86% 30.02 in 10.0 mi Calm Calm - N/A   Clear
1:54 AM 46.0 °F - 44.1 °F 93% 30.03 in 10.0 mi Calm Calm - N/A   Clear
2:54 AM 48.0 °F - 43.0 °F 83% 30.03 in 10.0 mi Calm Calm - N/A   Clear
3:54 AM 48.0 °F - 42.1 °F 80% 30.03 in 10.0 mi Calm Calm - N/A   Clear
4:54 AM 46.0 °F 43.9 °F 42.1 °F 86% 30.05 in 10.0 mi North 4.6 mph - N/A   Clear
5:54 AM 48.0 °F - 41.0 °F 77% 30.06 in 10.0 mi NNE 3.5 mph - N/A   Mostly Cloudy
6:54 AM 48.9 °F - 42.1 °F 77% 30.09 in 10.0 mi Calm Calm - N/A   Overcast
7:54 AM 50.0 °F - 44.1 °F 80% 30.09 in 10.0 mi NE 5.8 mph - 0.01 in Rain Light Rain
8:54 AM 50.0 °F - 46.0 °F 86% 30.11 in 10.0 mi North 5.8 mph - 0.00 in Rain Light Rain
9:54 AM 52.0 °F - 42.1 °F 69% 30.09 in 10.0 mi East 6.9 mph - 0.00 in   Overcast
10:54 AM 51.1 °F - 46.0 °F 83% 30.13 in 10.0 mi WNW 5.8 mph - 0.00 in Rain Light Rain
11:54 AM 50.0 °F - 45.0 °F 83% 30.12 in 5.0 mi North 4.6 mph - 0.05 in Rain Rain
12:54 PM 50.0 °F - 46.0 °F 86% 30.10 in 10.0 mi NNE 5.8 mph - 0.02 in Rain Light Rain
1:54 PM 50.0 °F - 45.0 °F 83% 30.07 in 10.0 mi NE 6.9 mph - 0.00 in   Overcast
2:54 PM 51.1 °F - 44.1 °F 77% 30.06 in 10.0 mi NE 4.6 mph - N/A   Overcast
3:54 PM 51.1 °F - 45.0 °F 80% 30.04 in 10.0 mi North 5.8 mph - N/A   Overcast
4:54 PM 51.1 °F - 43.0 °F 74% 30.03 in 10.0 mi NE 3.5 mph - N/A   Overcast
5:54 PM 51.1 °F - 44.1 °F 77% 30.03 in 10.0 mi Calm Calm - N/A   Overcast
6:49 PM 50.0 °F - 46.4 °F 87% 30.07 in 10.0 mi WNW 4.6 mph - 0.00 in Rain Light Rain
6:54 PM 50.0 °F - 46.0 °F 86% 30.08 in 9.0 mi WNW 5.8 mph - 0.00 in Rain Light Rain
7:22 PM 48.2 °F - 46.4 °F 93% 30.11 in 3.0 mi WNW 8.1 mph - 0.01 in Rain Light Rain
7:25 PM 48.2 °F - 46.4 °F 93% 30.11 in 2.5 mi WNW 9.2 mph - 0.01 in Rain Light Rain
7:40 PM 48.2 °F - 46.4 °F 93% 30.10 in 3.0 mi NW 8.1 mph - 0.03 in Rain Light Rain
7:49 PM 48.2 °F - 46.4 °F 93% 30.10 in 5.0 mi NNW 8.1 mph - 0.03 in Rain Light Rain
7:54 PM 48.0 °F - 45.0 °F 89% 30.11 in 6.0 mi NW 10.4 mph - 0.03 in Rain Light Rain
8:25 PM 46.4 °F 43.5 °F 46.4 °F 100% 30.13 in 4.0 mi NW 5.8 mph - 0.01 in Rain Light Rain
8:35 PM 48.2 °F - 46.4 °F 93% 30.13 in 5.0 mi NW 3.5 mph - 0.01 in Rain Light Rain
8:54 PM 48.0 °F - 46.9 °F 96% 30.13 in 6.0 mi Calm Calm - 0.01 in Rain Light Rain
9:25 PM 48.2 °F - 46.4 °F 93% 30.14 in 6.0 mi Calm Calm - 0.00 in Rain Light Rain
9:31 PM 48.2 °F - 46.4 °F 93% 30.15 in 5.0 mi NNW 3.5 mph - 0.01 in Rain Light Rain
9:39 PM 48.2 °F - 46.4 °F 93% 30.15 in 2.5 mi NNW 4.6 mph - 0.03 in Rain Rain
9:43 PM 48.2 °F - 46.4 °F 93% 30.14 in 3.0 mi NNW 3.5 mph - 0.03 in Rain Rain
9:54 PM 48.9 °F - 46.9 °F 93% 30.14 in 7.0 mi Calm Calm - 0.03 in Rain Light Rain
10:01 PM 48.2 °F - 46.4 °F 93% 30.14 in 8.0 mi Calm Calm - 0.00 in Rain Light Rain
10:54 PM 48.9 °F - 46.9 °F 93% 30.14 in 9.0 mi Calm Calm - 0.00 in   Overcast
11:51 PM 44.6 °F - 44.6 °F 100% 30.14 in 1.8 mi Calm Calm - N/A   Clear
11:54 PM 45.0 °F - 45.0 °F 100% 30.14 in 1.5 mi Calm Calm - N/A   Clear